COSMOS 1275 DEB, 42189

Orbit data source: Space-Track

COSMOS 1275 DEB, 42189 is space debris in LEO originally from a launch on Thu, 04 Jun 1981 UTC launched from the Plesetsk Missile And Space Complex (PKMTR). Debris objects in space refer to the collection of defunct objects orbiting the Earth. Examples of debris include non-operational satellites, rocket bodies, and fragments generated from explosions, collisions, or faulty payload assembly.

Loading next visibility...
Identifier
42189, 1981-053TD
Orbit
LEO
Country
Flag of CISCIS
Related business
Manufacturer
Unknown
Mission
Spacecraft
Bus & Motor
Unknown
Mass
Unknown
Launch date (UTC)
1981-06-04 (45 years ago)
Launch vehicle
Unknown
Launch site
Plesetsk Missile And Space Complex (PKMTR)
Object type
Payload
Rocket body
Debris
Shape & HBR
Unknown shape, 0.1 m
Radar Cross Section
Small (<0.1 m²)

Expand to show TLE details & history
Last TLE update: 1 day ago

TLE from 1 day ago
0 COSMOS 1275 DEB
1 42189U 81053TD  26263.14701675  .00000620  00000-0  62770-3 0  9994
2 42189  83.0181 223.2732 0122656 138.8612 222.1870 13.72284653622002
Epoch: 2026-09-20T03:31Z
TLE epoch observation values (Epoch: 2026-09-20T03:31:42.247Z)
Latitude
-0.00007°
Longitude
171.30179°
Altitude
1,061.762 km
Speed
7.287 km/s
True Right ascension
14h 53m 05s
True Declination
0° 00' 00"
Sunlit
Object was in daylight at epoch
Visualization orbit readout
Latitude
Unknown
Longitude
Unknown
Altitude
Unknown
Speed
Unknown
Apparent Right ascension
Unknown
Apparent Declination
Unknown
Sunlit
N/A
Visualization observer readout
Local Sidereal Time
08:28:28
Azimuth
Unknown
Elevation
Unknown
Doppler factor
Unknown
Orbital elements
Apogee altitude
1,078.886 km
Perigee altitude
898.173 km
Semi-major axis
7,366.666 km
Eccentricity
0.01227
Inclination
83.0181°
RAAN
223.2732°
Arg. of periapsis
138.8612°
True anomaly
221.25376°
Mean anomaly
222.187°
Eccentric anomaly
221.71932°
Mean motion
3.43271 °/min
Orbital period
104.87 mins
BSTAR
0.0006277
Loading maneuver chart data...
Computing Atmospheric mass density...

Documentation

Showing up to 5 results
|